Regional Weather Roundup
Issued by NWS

Home | Current Version | Previous Version | Text Only | Print | Product List | Glossary Off
Versions: 1 2 3 4 5 6 7 8 9 10 11 12 13 14 15 16 17 18 19 20 21 22 23 24 25 26 27 28 29 30 31 32 33 34 35 36 37 38 39 40 41 42 43 44 45 46 47 48 49 50

000
ASUS45 KTFX 282319
RWRMT
MONTANA HOURLY WEATHER ROUNDUP
NATIONAL WEATHER SERVICE GREAT FALLS MT
419 PM MST SAT FEB 28 2015

NOTE: "FAIR" INDICATES FEW OR NO CLOUDS BELOW 12000 FEET WITH NO
SIGNIFICANT WEATHER AND/OR OBSTRUCTIONS TO VISIBILITY.

* THESE STATIONS ARE NOT UNDER NWS QUALITY CONTROL. THEY DO NOT
   REPORT WEATHER SUCH AS PRECIPITATION OR FOG.

MTZ001>007-043-010000-
WEST OF THE DIVIDE
CITY           SKY/WX    TMP DP  RH WIND       PRES   REMARKS
KALISPELL      SUNNY     36   0  21 NE8       30.12S WCI  30
MISSOULA       SUNNY     34   7  32 VRB6      30.09S WCI  29
BUTTE          PTSUNNY   21   9  60 W9        29.98R WCI  11
MULLAN PASS    SUNNY     23   0  36 CALM      29.97R
* ANACONDA     SUNNY     21   5  50 N5         N/A   WCI  14
* ESSEX        N/A       30  -3  24 SE2G8      N/A
* EUREKA APT   SUNNY     39   0  19 CALM      30.15S
* HAMILTON APT SUNNY     34   7  32 N14       30.04R WCI  24
* LIBBY APT    SUNNY     37   0  21 E5        30.14S WCI  33
* LINCOLN      N/A       27   2  34 NE10       N/A   WCI  18
* LOOKOUT PASS N/A       30  -2  25 W4G9       N/A
* POLSON       N/A       34  -4  19 NW3        N/A
* RONAN APT    SUNNY     34   3  27 N8         N/A   WCI  27
* SEELEY LAKE  N/A       33   4  29 W4G11      N/A
* THOMP F APT  SUNNY     27   9  46 W11G24     N/A   WCI  17
* YAAK HILL    N/A       42   1  18 SE6G11     N/A
$$

MTZ008-052>055-010000-
SOUTHWEST MONTANA
CITY           SKY/WX    TMP DP  RH WIND       PRES   REMARKS
BOZEMAN        CLOUDY    25   9  50 SW6       30.04S WCI  18
DILLON         PTCLDY    27   5  39 NE8       29.95S WCI  19
* W YELLOWSTON SUNNY     27   5  39 NW3G8      N/A
* THREE FORKS  SUNNY     28   7  41 N/A        N/A
* BOULDER HILL N/A       16   2  54 N13        N/A   WCI   2
* MONIDA PASS  N/A       19   9  65 NW15G26    N/A   WCI   5
* RAYNOLDS PAS N/A        9 -34  11 VRB19G24    N/A   WCI -10
* WHITEHALL    N/A       29   5  36 E9G16      N/A   WCI  21
* WISE RIVER   N/A       25   3  38 E7G21      N/A   WCI  17
$$

MTZ009>010-012-014-046-048-049-054-010000-
EAST SLOPES AND CENTRAL MONTANA
CITY           SKY/WX    TMP DP  RH WIND       PRES   REMARKS
CUT BANK       SUNNY     23   9  55 NW16      30.11S WCI  10
GREAT FALLS    PTSUNNY   23   9  55 W14       30.12F WCI  10
HELENA         SUNNY     27   3  35 N13       30.11R WCI  16
MALMSTROM AFB  PTCLDY    21  10  62 SW7       30.15S WCI  12
* CONRAD       SUNNY     25  10  53 W12        N/A   WCI  14
* DEARBORN     N/A       22   3  44 N/A        N/A
* EAST GLACIER N/A       20   5  52 NE15G21    N/A   WCI   6
* MONARCH      N/A       11   2  67 NW13       N/A   WCI  -4
* PENDROY      N/A       22   6  50 NW13       N/A   WCI  10
* ROGERS PASS  N/A       15  -1  49 SE4        N/A
* SWEET GRASS  N/A       21   7  55 NW14G19    N/A   WCI   8
$$

MTZ011-013-016-021-035-040-045-047-050-051-010000-
NORTH CENTRAL MONTANA
CITY           SKY/WX    TMP DP  RH WIND       PRES   REMARKS
HAVRE          SUNNY     27   3  35 NW20      30.15S WCI  13
LEWISTOWN      LGT SNOW  16   9  74 W7        30.10R WCI   6
* N BAR RANCH  SUNNY     19   7  59 NW15      30.04S WCI   5
* CHINOOK      SUNNY     27   3  35 W16       30.15S WCI  15
* FORT BENTON  SUNNY     25  10  53 SW13      30.18S WCI  13
* CHESTER      N/A       24   5  44 NW10G19    N/A   WCI  14
* DENTON       N/A       18   6  59 NW11G17    N/A   WCI   6
* GEYSER       N/A       16   5  62 W17G24     N/A
* JUDITH GAP   N/A       14   9  80 N20        N/A   WCI  -4
* LOMA         N/A       24   9  53 SW9        N/A   WCI  14
$$

MTZ017>020-022>027-061-062-010000-
NORTHEAST MONTANA
CITY           SKY/WX    TMP DP  RH WIND       PRES   REMARKS
GLASGOW        SUNNY     25   5  42 W17G23    30.13S WCI  12
GLENDIVE       SUNNY     19   5  54 NW14      30.14F WCI   5
JORDAN         SUNNY     21   7  55 NW10      30.13F WCI  10
SIDNEY         PTCLDY    19   3  49 W13G18    30.18S WCI   6
WOLF POINT     SUNNY     25   3  38 W17G22    30.15F WCI  12
* BEAVER HILL  N/A       17   5  59 W17G23     N/A   WCI   1
* CIRCLE       N/A       21   8  57 W12        N/A   WCI   9
* LINDSAY DVD  N/A       16   5  62 W16G21     N/A   WCI   1
* NAVAJO       N/A       15   1  54 NW12G17    N/A   WCI   1
* POPLAR APT   SUNNY     21   1  41 W13       30.15S WCI   8
* SACO         N/A       26   1  34 W16        N/A   WCI  13
$$

MTZ028>042-056>058-010000-
SOUTHCENTRAL AND SOUTHEAST MONTANA
CITY           SKY/WX    TMP DP  RH WIND       PRES   REMARKS
BAKER          CLOUDY    19   7  59 NW18      30.11S WCI   4
BILLINGS       PTSUNNY   27   7  42 S3        30.08S
LIVINGSTON     PTCLDY    23   7  50 SE3       30.02S
MILES CITY     CLOUDY    23   9  55 NW18      30.15S WCI   9
* BIG TIMBER A PTCLDY    25   7  46 SW3       30.04S
* FORSYTH APT  PTCLDY    21  10  62 NW6       30.15F WCI  13
* LAUREL APT   SUNNY     28   5  37 N/A        N/A
* ROUNDUP APT  SUNNY     25   7  46 N6         N/A   WCI  18
* ALZADA       N/A       19  10  68 W9         N/A   WCI   8
* HYSHAM       N/A       22   7  52 W4         N/A
* LAME DEER    N/A       14   7  73 NW6        N/A   WCI   5
* REED POINT   N/A       27  10  49 W4G11      N/A
* ROSCOE HILL  N/A       21  -1  38 S1         N/A
$$

REGIONAL REPORTS...DAKOTAS
CITY           SKY/WX    TMP DP  RH WIND       PRES   REMARKS
WILLISTON      CLOUDY    16   3  56 W8        30.15S WCI   5
DICKINSON      PTSUNNY   18   3  52 W23       30.08S WCI   1
BEACH          PTSUNNY   18   5  57 NW16      30.11S WCI   3
CROSBY         PTSUNNY   10   5  80 W9        30.13F WCI  -3
TIOGA          PTSUNNY   10   5  80 NW16      30.14S WCI  -7
WATFORD CITY   PTCLDY    14   5  67 NW12      30.12F
BISMARCK       PTSUNNY   19   3  49 NW16G24   30.16R WCI   4
GRAND FORKS    LGT SNOW  21  18  88 SW14      30.10F WCI   8
FARGO          CLOUDY    27  16  63 S21       30.15S WCI  13
BUFFALO SD     SUNNY     19   7  59 W18G25    30.04R WCI   4
RAPID CITY     SUNNY     21  10  62 N15       30.10R WCI   7
$$

REGIONAL REPORTS...WYOMING/IDAHO/WASHINGTON
CITY           SKY/WX    TMP DP  RH WIND       PRES   REMARKS
GILLETTE       SUNNY     19   9  65 N9        30.04S WCI   8
SHERIDAN       PTCLDY    19   7  59 CALM      30.08S
CODY           PTCLDY    19   9  65 N7        29.98S WCI  10
YELLOWSTONE LA PTCLDY    21   7  55 E5        29.80R WCI  14
SALMON         PTCLDY    37  12  36 CALM      29.93R
MULLAN PASS    SUNNY     23   0  36 CALM      29.97S
SAND POINT     SUNNY     43   1  17 N7        30.12S
SPOKANE        SUNNY     43   3  19 NE14      30.09F
$$

REGIONAL REPORTS...ALBERTA
CITY           SKY/WX    TMP DP  RH WIND       PRES   REMARKS
CALGARY        SUNNY     28  12  51 N14G20    30.11S WCI  17
LETHBRIDGE     CLOUDY    27  12  53 NW16G24   30.15R WCI  15
MEDICINE HAT   CLOUDY    25  18  75 W8        30.14S WCI  16
EDMONTON       PTSUNNY   27  14  58 N17G23    30.15R WCI  14
WATERTON GATE  N/A       23   7  50 NE12       N/A   WCI  11
CARDSTON       N/A       25   7  46 NW9        N/A   WCI  16
MILK RIVER     N/A       23  12  63 W14        N/A   WCI  10
$$

REGIONAL REPORTS...SASKATCHEWAN
CITY           SKY/WX    TMP DP  RH WIND       PRES   REMARKS
SWIFT CURRENT  LGT SNOW  18  12  77 NW15G25   30.04S WCI   4
REGINA         PTSUNNY   12   7  80 W13       30.08S WCI  -3
ASSINIBOIA     N/A       16   5  62 W16        N/A   WCI   1
CORONACH       N/A       16   3  56 NW13       N/A   WCI   2

$$




USA.gov is the U.S. government's official web portal to all federal, state and local government web resources and services.